Location: Alexandria
(38.8050°N, 77.0470°W)
Time: 01:39:38
(UTC-05:00)

N. Korean satellite - Pass Details

Date: 15 November 2017
Orbit: 460 x 515 km, 97.2° (Epoch: 18 November)

Event Time Altitude Azimuth Distance (km) Brightness Sun altitude
Rises 06:13:39 0° 25° (NNE) 2,600 10.4 -7.6°
Reaches altitude 10° 06:16:01 10° 40° (NE) 1,720 9.6 -7.2°
Maximum altitude 06:19:06 24° 96° (E) 1,073 9.4 -6.6°
Drops below altitude 10° 06:22:11 10° 152° (SSE) 1,726 10.1 -6.1°
Sets 06:24:33 0° 166° (SSE) 2,611 10.8 -5.6°
